Time,TemperatureF,DewpointF,PressureIn,WindDirection,WindDirectionDegrees,WindSpeedMPH,WindSpeedGustMPH,Humidity,HourlyPrecipIn,Conditions,Clouds,dailyrainin,SoftwareType,DateUTC
2013-02-05 00:02:00,55.7,44.1,30.05,South,179,0.0,0.0,65,0.00,,,0.00,VWS V14.01,2013-02-05 05:02:00,
2013-02-05 00:03:00,55.8,44.2,30.05,South,179,0.0,0.0,65,0.00,,,0.00,VWS V14.01,2013-02-05 05:03:00,
2013-02-05 00:08:00,55.6,44.0,30.04,South,179,0.0,0.0,65,0.00,,,0.00,VWS V14.01,2013-02-05 05:08:00,
2013-02-05 00:11:00,55.4,43.8,30.04,South,179,0.0,0.0,65,0.00,,,0.00,VWS V14.01,2013-02-05 05:11:00,
2013-02-05 00:17:00,55.2,44.0,30.04,South,179,0.0,0.0,66,0.00,,,0.00,VWS V14.01,2013-02-05 05:17:00,
2013-02-05 00:23:00,54.8,44.1,30.05,South,179,0.0,0.0,67,0.00,,,0.00,VWS V14.01,2013-02-05 05:23:00,
2013-02-05 00:28:00,54.5,43.8,30.05,South,179,0.0,0.0,67,0.00,,,0.00,VWS V14.01,2013-02-05 05:28:00,
2013-02-05 00:33:00,54.3,44.0,30.05,South,179,0.0,0.0,68,0.00,,,0.00,VWS V14.01,2013-02-05 05:33:00,
2013-02-05 00:38:00,54.2,44.3,30.05,South,179,0.0,0.0,69,0.00,,,0.00,VWS V14.01,2013-02-05 05:38:00,
2013-02-05 00:43:00,53.9,44.3,30.05,South,179,0.0,0.0,70,0.00,,,0.00,VWS V14.01,2013-02-05 05:43:00,
2013-02-05 00:48:00,53.7,44.2,30.05,South,179,0.0,0.0,70,0.00,,,0.00,VWS V14.01,2013-02-05 05:48:00,
2013-02-05 00:53:00,53.5,44.3,30.05,South,179,0.0,0.0,71,0.00,,,0.00,VWS V14.01,2013-02-05 05:53:00,
2013-02-05 00:58:00,53.3,44.2,30.04,South,179,0.0,0.0,71,0.00,,,0.00,VWS V14.01,2013-02-05 05:58:00,
2013-02-05 01:03:00,53.2,44.4,30.04,South,179,0.0,0.0,72,0.00,,,0.00,VWS V14.01,2013-02-05 06:03:00,
2013-02-05 01:08:00,53.1,44.3,30.04,South,179,0.0,0.0,72,0.00,,,0.00,VWS V14.01,2013-02-05 06:08:00,
2013-02-05 01:13:00,53.0,44.6,30.04,South,179,0.0,0.0,73,0.00,,,0.00,VWS V14.01,2013-02-05 06:13:00,
2013-02-05 01:18:00,52.8,44.4,30.04,South,179,0.0,0.0,73,0.00,,,0.00,VWS V14.01,2013-02-05 06:18:00,
2013-02-05 01:23:00,52.6,44.2,30.04,South,178,0.0,0.0,73,0.00,,,0.00,VWS V14.01,2013-02-05 06:23:00,
2013-02-05 01:28:00,52.5,44.1,30.05,South,179,0.0,0.0,73,0.00,,,0.00,VWS V14.01,2013-02-05 06:28:00,
2013-02-05 01:33:00,52.4,44.0,30.04,South,179,0.0,0.0,73,0.00,,,0.00,VWS V14.01,2013-02-05 06:33:00,
2013-02-05 01:38:00,52.3,43.9,30.05,South,179,0.0,0.0,73,0.00,,,0.00,VWS V14.01,2013-02-05 06:38:00,
2013-02-05 01:43:00,52.2,43.8,30.05,South,179,0.0,0.0,73,0.00,,,0.00,VWS V14.01,2013-02-05 06:43:00,
2013-02-05 01:48:00,52.0,44.0,30.04,South,179,0.0,0.0,74,0.00,,,0.00,VWS V14.01,2013-02-05 06:48:00,
2013-02-05 01:53:00,51.8,43.8,30.04,South,179,0.0,0.0,74,0.00,,,0.00,VWS V14.01,2013-02-05 06:53:00,
2013-02-05 02:00:00,51.5,43.8,30.03,South,179,0.0,0.0,75,0.00,,,0.00,VWS V14.01,2013-02-05 07:00:00,
2013-02-05 02:06:00,51.2,43.6,30.04,South,179,0.0,0.0,75,0.00,,,0.00,VWS V14.01,2013-02-05 07:06:00,
2013-02-05 02:12:00,50.9,43.6,30.03,South,179,0.0,0.0,76,0.00,,,0.00,VWS V14.01,2013-02-05 07:12:00,
2013-02-05 02:18:00,50.7,43.8,30.03,South,179,0.0,0.0,77,0.00,,,0.00,VWS V14.01,2013-02-05 07:18:00,
2013-02-05 02:23:00,50.4,43.1,30.03,South,179,0.0,0.0,76,0.00,,,0.00,VWS V14.01,2013-02-05 07:23:00,
2013-02-05 02:30:00,50.2,42.9,30.03,South,179,0.0,0.0,76,0.00,,,0.00,VWS V14.01,2013-02-05 07:30:00,
2013-02-05 02:36:00,50.0,43.1,30.03,South,179,0.0,0.0,77,0.00,,,0.00,VWS V14.01,2013-02-05 07:36:00,
2013-02-05 02:42:00,49.8,42.9,30.03,South,179,0.0,0.0,77,0.00,,,0.00,VWS V14.01,2013-02-05 07:42:00,
2013-02-05 02:48:00,49.6,43.0,30.03,South,179,0.0,0.0,78,0.00,,,0.00,VWS V14.01,2013-02-05 07:48:00,
2013-02-05 02:53:00,49.5,42.9,30.03,South,179,0.0,0.0,78,0.00,,,0.00,VWS V14.01,2013-02-05 07:53:00,
2013-02-05 02:58:00,49.3,42.7,30.03,South,179,0.0,0.0,78,0.00,,,0.00,VWS V14.01,2013-02-05 07:58:00,
2013-02-05 03:06:00,49.0,42.8,30.03,South,179,0.0,0.0,79,0.00,,,0.00,VWS V14.01,2013-02-05 08:06:00,
2013-02-05 03:12:00,48.7,42.5,30.03,South,179,0.0,0.0,79,0.00,,,0.00,VWS V14.01,2013-02-05 08:12:00,
2013-02-05 03:18:00,48.5,42.3,30.03,South,179,0.0,0.0,79,0.00,,,0.00,VWS V14.01,2013-02-05 08:18:00,
2013-02-05 03:23:00,48.3,42.4,30.03,South,179,0.0,0.0,80,0.00,,,0.00,VWS V14.01,2013-02-05 08:23:00,
2013-02-05 03:28:00,48.1,42.5,30.03,South,179,0.0,0.0,81,0.00,,,0.00,VWS V14.01,2013-02-05 08:28:00,
2013-02-05 03:33:00,47.9,42.0,30.03,South,179,0.0,0.0,80,0.00,,,0.00,VWS V14.01,2013-02-05 08:33:00,
2013-02-05 03:38:00,47.7,42.2,30.03,South,179,0.0,0.0,81,0.00,,,0.00,VWS V14.01,2013-02-05 08:38:00,
2013-02-05 03:45:00,47.4,42.2,30.03,South,179,0.0,0.0,82,0.00,,,0.00,VWS V14.01,2013-02-05 08:45:00,
2013-02-05 03:51:00,47.2,42.0,30.03,South,179,0.0,0.0,82,0.00,,,0.00,VWS V14.01,2013-02-05 08:51:00,
2013-02-05 03:57:00,46.9,41.7,30.03,South,179,0.0,0.0,82,0.00,,,0.00,VWS V14.01,2013-02-05 08:57:00,
2013-02-05 04:03:00,46.7,41.8,30.03,South,179,0.0,0.0,83,0.00,,,0.00,VWS V14.01,2013-02-05 09:03:00,
2013-02-05 04:08:00,46.6,41.7,30.04,South,179,0.0,0.0,83,0.00,,,0.00,VWS V14.01,2013-02-05 09:08:00,
2013-02-05 04:13:00,46.5,41.6,30.04,South,179,0.0,0.0,83,0.00,,,0.00,VWS V14.01,2013-02-05 09:13:00,
2013-02-05 04:18:00,46.3,41.7,30.04,South,179,0.0,0.0,84,0.00,,,0.00,VWS V14.01,2013-02-05 09:18:00,
2013-02-05 04:23:00,46.3,41.7,30.03,South,179,0.0,0.0,84,0.00,,,0.00,VWS V14.01,2013-02-05 09:23:00,
2013-02-05 04:28:00,46.2,41.6,30.03,South,179,0.0,0.0,84,0.00,,,0.00,VWS V14.01,2013-02-05 09:28:00,
2013-02-05 04:33:00,46.1,41.8,30.04,South,179,0.0,0.0,85,0.00,,,0.00,VWS V14.01,2013-02-05 09:33:00,
2013-02-05 04:38:00,46.2,42.0,30.03,South,179,0.0,0.0,85,0.00,,,0.00,VWS V14.01,2013-02-05 09:38:00,
2013-02-05 04:43:00,46.2,42.0,30.03,South,179,0.0,0.0,85,0.00,,,0.00,VWS V14.01,2013-02-05 09:43:00,
2013-02-05 04:48:00,46.3,42.3,30.03,South,179,0.0,0.0,86,0.00,,,0.00,VWS V14.01,2013-02-05 09:48:00,
2013-02-05 04:53:00,46.3,42.3,30.03,South,179,0.0,0.0,86,0.00,,,0.00,VWS V14.01,2013-02-05 09:53:00,
2013-02-05 04:58:00,46.4,42.5,30.03,South,179,0.0,0.0,86,0.00,,,0.00,VWS V14.01,2013-02-05 09:58:00,
2013-02-05 05:04:00,46.5,42.5,30.03,South,179,0.0,0.0,86,0.00,,,0.00,VWS V14.01,2013-02-05 10:04:00,
2013-02-05 05:10:00,46.8,42.8,30.03,South,179,0.0,0.0,86,0.00,,,0.00,VWS V14.01,2013-02-05 10:10:00,
2013-02-05 05:16:00,46.9,42.9,30.03,South,179,0.0,0.0,86,0.00,,,0.00,VWS V14.01,2013-02-05 10:16:00,
2013-02-05 05:22:00,47.2,42.6,30.03,South,179,0.0,0.0,84,0.00,,,0.00,VWS V14.01,2013-02-05 10:22:00,
2013-02-05 05:28:00,47.3,42.4,30.03,South,179,0.0,0.0,83,0.00,,,0.00,VWS V14.01,2013-02-05 10:28:00,
2013-02-05 05:33:00,47.5,42.6,30.03,South,179,0.0,0.0,83,0.00,,,0.00,VWS V14.01,2013-02-05 10:33:00,
2013-02-05 05:38:00,47.6,42.7,30.04,South,179,0.0,0.0,83,0.00,,,0.00,VWS V14.01,2013-02-05 10:38:00,
2013-02-05 05:43:00,47.8,42.6,30.04,South,179,0.0,0.0,82,0.00,,,0.00,VWS V14.01,2013-02-05 10:43:00,
2013-02-05 05:48:00,47.8,42.9,30.04,South,179,0.0,0.0,83,0.00,,,0.00,VWS V14.01,2013-02-05 10:48:00,
2013-02-05 05:53:00,47.8,42.9,30.04,South,179,0.0,0.0,83,0.00,,,0.00,VWS V14.01,2013-02-05 10:53:00,
2013-02-05 05:58:00,47.8,42.9,30.05,South,179,0.0,0.0,83,0.00,,,0.00,VWS V14.01,2013-02-05 10:58:00,
2013-02-05 06:03:00,47.7,42.8,30.05,South,179,0.0,0.0,83,0.00,,,0.00,VWS V14.01,2013-02-05 11:03:00,
2013-02-05 06:10:00,47.7,43.1,30.05,South,179,0.0,0.0,84,0.00,,,0.00,VWS V14.01,2013-02-05 11:10:00,
2013-02-05 06:16:00,47.7,43.1,30.05,South,179,0.0,0.0,84,0.00,,,0.00,VWS V14.01,2013-02-05 11:16:00,
2013-02-05 06:22:00,47.7,43.4,30.05,South,179,0.0,0.0,85,0.00,,,0.00,VWS V14.01,2013-02-05 11:22:00,
2013-02-05 06:28:00,47.6,43.3,30.07,South,179,0.0,0.0,85,0.00,,,0.00,VWS V14.01,2013-02-05 11:28:00,
2013-02-05 06:33:00,47.6,43.3,30.07,South,179,0.0,0.0,85,0.00,,,0.00,VWS V14.01,2013-02-05 11:33:00,
2013-02-05 06:38:00,47.6,43.3,30.07,South,179,0.0,0.0,85,0.00,,,0.00,VWS V14.01,2013-02-05 11:38:00,
2013-02-05 06:43:00,47.6,43.3,30.08,South,179,0.0,0.0,85,0.00,,,0.00,VWS V14.01,2013-02-05 11:43:00,
2013-02-05 06:48:00,47.7,43.7,30.07,South,179,0.0,0.0,86,0.00,,,0.00,VWS V14.01,2013-02-05 11:48:00,
2013-02-05 06:53:00,47.8,43.8,30.07,South,179,0.0,0.0,86,0.00,,,0.00,VWS V14.01,2013-02-05 11:53:00,
2013-02-05 06:58:00,47.9,43.9,30.07,South,179,0.0,0.0,86,0.00,,,0.00,VWS V14.01,2013-02-05 11:58:00,
2013-02-05 07:03:00,47.9,43.9,30.08,South,179,0.0,0.0,86,0.00,,,0.00,VWS V14.01,2013-02-05 12:03:00,
2013-02-05 07:08:00,48.3,44.6,30.09,South,179,0.0,0.0,87,0.00,,,0.00,VWS V14.01,2013-02-05 12:08:00,
2013-02-05 07:13:00,48.5,44.8,30.08,South,179,0.0,0.0,87,0.00,,,0.00,VWS V14.01,2013-02-05 12:13:00,
2013-02-05 07:18:00,48.5,44.5,30.08,South,179,0.0,0.0,86,0.00,,,0.00,VWS V14.01,2013-02-05 12:18:00,
2013-02-05 07:23:00,48.6,44.6,30.08,South,179,0.0,0.0,86,0.00,,,0.00,VWS V14.01,2013-02-05 12:23:00,
2013-02-05 07:28:00,48.6,44.9,30.08,South,179,0.0,0.0,87,0.00,,,0.00,VWS V14.01,2013-02-05 12:28:00,
2013-02-05 07:34:00,48.8,45.1,30.09,South,179,0.0,0.0,87,0.00,,,0.00,VWS V14.01,2013-02-05 12:34:00,
2013-02-05 07:40:00,49.0,45.3,30.08,South,179,0.0,0.0,87,0.00,,,0.00,VWS V14.01,2013-02-05 12:40:00,
2013-02-05 07:46:00,49.4,46.0,30.08,South,179,0.0,0.0,88,0.00,,,0.00,VWS V14.01,2013-02-05 12:46:00,
2013-02-05 07:52:00,49.8,46.1,30.08,South,179,0.0,0.0,87,0.00,,,0.00,VWS V14.01,2013-02-05 12:52:00,
2013-02-05 07:58:00,50.1,46.4,30.08,South,179,0.0,0.0,87,0.00,,,0.00,VWS V14.01,2013-02-05 12:58:00,
2013-02-05 08:03:00,50.5,46.5,30.09,South,179,0.0,0.0,86,0.00,,,0.00,VWS V14.01,2013-02-05 13:03:00,
2013-02-05 08:10:00,51.2,46.8,30.08,South,179,0.0,0.0,85,0.00,,,0.00,VWS V14.01,2013-02-05 13:10:00,
2013-02-05 08:16:00,51.7,46.4,30.08,South,179,0.0,1.0,82,0.00,,,0.00,VWS V14.01,2013-02-05 13:16:00,
2013-02-05 08:22:00,52.4,45.8,30.08,South,179,0.0,1.0,78,0.00,,,0.00,VWS V14.01,2013-02-05 13:22:00,
2013-02-05 08:28:00,52.9,44.8,30.09,South,179,0.0,3.0,74,0.00,,,0.00,VWS V14.01,2013-02-05 13:28:00,
2013-02-05 08:35:00,53.5,44.7,30.09,South,179,1.0,2.0,72,0.00,,,0.00,VWS V14.01,2013-02-05 13:35:00,
2013-02-05 08:41:00,54.1,44.2,30.09,SW,228,2.0,3.0,69,0.00,,,0.00,VWS V14.01,2013-02-05 13:41:00,
2013-02-05 08:47:00,54.6,43.9,30.09,SW,219,0.0,4.0,67,0.00,,,0.00,VWS V14.01,2013-02-05 13:47:00,
2013-02-05 08:53:00,54.9,43.8,30.09,SW,219,0.0,4.0,66,0.00,,,0.00,VWS V14.01,2013-02-05 13:53:00,
2013-02-05 08:58:00,54.9,42.6,30.08,SW,219,2.0,3.0,63,0.00,,,0.00,VWS V14.01,2013-02-05 13:58:00,
2013-02-05 09:03:00,55.0,42.7,30.09,SW,219,3.0,3.0,63,0.00,,,0.00,VWS V14.01,2013-02-05 14:03:00,
2013-02-05 09:08:00,55.1,42.8,30.09,SW,218,0.0,3.0,63,0.00,,,0.00,VWS V14.01,2013-02-05 14:08:00,
2013-02-05 09:13:00,55.2,42.0,30.09,SW,220,0.0,4.0,61,0.00,,,0.00,VWS V14.01,2013-02-05 14:13:00,
2013-02-05 09:18:00,55.3,42.1,30.09,SW,220,0.0,3.0,61,0.00,,,0.00,VWS V14.01,2013-02-05 14:18:00,
2013-02-05 09:23:00,55.3,42.9,30.10,SW,220,2.0,3.0,63,0.00,,,0.00,VWS V14.01,2013-02-05 14:23:00,
2013-02-05 09:28:00,55.2,43.7,30.10,SW,220,0.0,2.0,65,0.00,,,0.00,VWS V14.01,2013-02-05 14:28:00,
2013-02-05 09:33:00,55.2,44.0,30.11,West,266,1.0,3.0,66,0.00,,,0.00,VWS V14.01,2013-02-05 14:33:00,
2013-02-05 09:38:00,55.1,44.3,30.11,SW,233,0.0,3.0,67,0.00,,,0.00,VWS V14.01,2013-02-05 14:38:00,
2013-02-05 09:43:00,55.1,44.3,30.10,SW,233,0.0,2.0,67,0.00,,,0.00,VWS V14.01,2013-02-05 14:43:00,
2013-02-05 09:48:00,55.4,44.2,30.10,SW,233,0.0,1.0,66,0.00,,,0.00,VWS V14.01,2013-02-05 14:48:00,
2013-02-05 09:53:00,55.7,44.1,30.11,SW,228,0.0,2.0,65,0.00,,,0.00,VWS V14.01,2013-02-05 14:53:00,
2013-02-05 09:58:00,56.1,44.1,30.11,SW,228,0.0,2.0,64,0.00,,,0.00,VWS V14.01,2013-02-05 14:58:00,
2013-02-05 10:03:00,56.4,44.0,30.11,SW,230,0.0,3.0,63,0.00,,,0.00,VWS V14.01,2013-02-05 15:03:00,
2013-02-05 10:08:00,56.5,43.7,30.11,SW,230,0.0,2.0,62,0.00,,,0.00,VWS V14.01,2013-02-05 15:08:00,
2013-02-05 10:13:00,56.7,43.8,30.11,SW,229,0.0,3.0,62,0.00,,,0.00,VWS V14.01,2013-02-05 15:13:00,
2013-02-05 10:18:00,56.8,43.9,30.11,SW,230,0.0,1.0,62,0.00,,,0.00,VWS V14.01,2013-02-05 15:18:00,
2013-02-05 10:23:00,56.9,43.6,30.11,SW,230,0.0,1.0,61,0.00,,,0.00,VWS V14.01,2013-02-05 15:23:00,
2013-02-05 10:28:00,57.1,43.8,30.11,SW,230,0.0,1.0,61,0.00,,,0.00,VWS V14.01,2013-02-05 15:28:00,
2013-02-05 10:33:00,57.2,43.9,30.11,SW,229,0.0,2.0,61,0.00,,,0.00,VWS V14.01,2013-02-05 15:33:00,
2013-02-05 10:38:00,57.5,44.2,30.11,SW,230,0.0,1.0,61,0.00,,,0.00,VWS V14.01,2013-02-05 15:38:00,
2013-02-05 10:43:00,57.6,44.3,30.11,SW,229,0.0,1.0,61,0.00,,,0.00,VWS V14.01,2013-02-05 15:43:00,
2013-02-05 10:48:00,57.7,44.4,30.11,SW,230,0.0,1.0,61,0.00,,,0.00,VWS V14.01,2013-02-05 15:48:00,
2013-02-05 10:53:00,57.8,44.9,30.10,SW,230,0.0,1.0,62,0.00,,,0.00,VWS V14.01,2013-02-05 15:53:00,
2013-02-05 10:58:00,57.8,44.9,30.11,SW,230,0.0,3.0,62,0.00,,,0.00,VWS V14.01,2013-02-05 15:58:00,
2013-02-05 11:05:00,57.9,45.4,30.11,SW,230,0.0,0.0,63,0.00,,,0.00,VWS V14.01,2013-02-05 16:05:00,
2013-02-05 11:11:00,58.1,44.7,30.10,SW,229,0.0,0.0,61,0.00,,,0.00,VWS V14.01,2013-02-05 16:11:00,
2013-02-05 11:17:00,58.6,46.5,30.10,SW,230,0.0,1.0,64,0.00,,,0.00,VWS V14.01,2013-02-05 16:17:00,
2013-02-05 11:23:00,58.8,45.0,30.10,SW,229,0.0,2.0,60,0.00,,,0.00,VWS V14.01,2013-02-05 16:23:00,
2013-02-05 11:28:00,59.0,44.7,30.10,SW,229,0.0,4.0,59,0.00,,,0.00,VWS V14.01,2013-02-05 16:28:00,
2013-02-05 11:33:00,59.2,43.5,30.09,SW,222,0.0,3.0,56,0.00,,,0.00,VWS V14.01,2013-02-05 16:33:00,
2013-02-05 11:38:00,59.5,43.8,30.09,SW,217,3.0,3.0,56,0.00,,,0.00,VWS V14.01,2013-02-05 16:38:00,
2013-02-05 11:43:00,59.8,43.6,30.09,SSW,200,1.0,5.0,55,0.00,,,0.00,VWS V14.01,2013-02-05 16:43:00,
2013-02-05 11:48:00,60.1,44.4,30.09,SSW,199,0.0,2.0,56,0.00,,,0.00,VWS V14.01,2013-02-05 16:48:00,
2013-02-05 11:53:00,60.4,45.1,30.09,SW,216,0.0,6.0,57,0.00,,,0.00,VWS V14.01,2013-02-05 16:53:00,
2013-02-05 11:59:00,60.7,44.9,30.09,SW,225,0.0,3.0,56,0.00,,,0.00,VWS V14.01,2013-02-05 16:59:00,
2013-02-05 12:05:00,60.9,43.7,30.08,SSW,193,0.0,4.0,53,0.00,,,0.00,VWS V14.01,2013-02-05 17:05:00,
2013-02-05 12:11:00,61.4,43.6,30.08,SSW,211,1.0,4.0,52,0.00,,,0.00,VWS V14.01,2013-02-05 17:11:00,
2013-02-05 12:17:00,61.9,44.6,30.08,SW,233,0.0,5.0,53,0.00,,,0.00,VWS V14.01,2013-02-05 17:17:00,
2013-02-05 12:23:00,62.4,44.6,30.08,SSW,199,0.0,4.0,52,0.00,,,0.00,VWS V14.01,2013-02-05 17:23:00,
2013-02-05 12:29:00,63.2,45.3,30.08,West,277,3.0,4.0,52,0.00,,,0.00,VWS V14.01,2013-02-05 17:29:00,
2013-02-05 12:35:00,63.3,44.9,30.07,SW,217,2.0,4.0,51,0.00,,,0.00,VWS V14.01,2013-02-05 17:35:00,
2013-02-05 12:41:00,63.2,44.8,30.07,SW,217,0.0,4.0,51,0.00,,,0.00,VWS V14.01,2013-02-05 17:41:00,
2013-02-05 12:47:00,63.7,45.8,30.07,SW,231,0.0,3.0,52,0.00,,,0.00,VWS V14.01,2013-02-05 17:47:00,
2013-02-05 12:53:00,64.1,46.1,30.07,SW,220,0.0,5.0,52,0.00,,,0.00,VWS V14.01,2013-02-05 17:53:00,
2013-02-05 12:58:00,64.4,46.9,30.06,SW,214,4.0,4.0,53,0.00,,,0.00,VWS V14.01,2013-02-05 17:58:00,
2013-02-05 13:03:00,64.3,46.3,30.06,SSW,208,0.0,6.0,52,0.00,,,0.00,VWS V14.01,2013-02-05 18:03:00,
2013-02-05 13:08:00,64.4,46.9,30.05,SSW,209,1.0,3.0,53,0.00,,,0.00,VWS V14.01,2013-02-05 18:08:00,
2013-02-05 13:13:00,64.6,46.1,30.05,SSW,209,0.0,3.0,51,0.00,,,0.00,VWS V14.01,2013-02-05 18:13:00,
2013-02-05 13:18:00,65.0,47.0,30.05,SSW,204,3.0,4.0,52,0.00,,,0.00,VWS V14.01,2013-02-05 18:18:00,
2013-02-05 13:23:00,65.0,47.0,30.04,SSW,199,0.0,5.0,52,0.00,,,0.00,VWS V14.01,2013-02-05 18:23:00,
2013-02-05 13:28:00,65.3,46.7,30.04,SSW,211,0.0,6.0,51,0.00,,,0.00,VWS V14.01,2013-02-05 18:28:00,
2013-02-05 13:33:00,65.4,46.8,30.03,SSW,200,0.0,6.0,51,0.00,,,0.00,VWS V14.01,2013-02-05 18:33:00,
2013-02-05 13:38:00,65.7,46.6,30.03,SW,218,2.0,4.0,50,0.00,,,0.00,VWS V14.01,2013-02-05 18:38:00,
2013-02-05 13:45:00,66.2,47.0,30.03,SSW,212,2.0,6.0,50,0.00,,,0.00,VWS V14.01,2013-02-05 18:45:00,
2013-02-05 13:51:00,66.1,46.9,30.03,SSW,203,0.0,3.0,50,0.00,,,0.00,VWS V14.01,2013-02-05 18:51:00,
2013-02-05 13:57:00,67.1,47.3,30.02,SW,214,6.0,6.0,49,0.00,,,0.00,VWS V14.01,2013-02-05 18:57:00,
2013-02-05 14:03:00,67.5,47.7,30.02,SW,215,2.0,4.0,49,0.00,,,0.00,VWS V14.01,2013-02-05 19:03:00,
2013-02-05 14:08:00,67.2,47.4,30.02,SSW,204,2.0,6.0,49,0.00,,,0.00,VWS V14.01,2013-02-05 19:08:00,
2013-02-05 14:13:00,67.0,46.7,30.02,SSW,209,3.0,6.0,48,0.00,,,0.00,VWS V14.01,2013-02-05 19:13:00,
2013-02-05 14:18:00,66.9,46.6,30.02,SSW,211,6.0,7.0,48,0.00,,,0.00,VWS V14.01,2013-02-05 19:18:00,
2013-02-05 14:23:00,67.1,46.8,30.02,SSW,207,0.0,6.0,48,0.00,,,0.00,VWS V14.01,2013-02-05 19:23:00,
2013-02-05 14:28:00,67.6,46.7,30.02,SSW,209,3.0,5.0,47,0.00,,,0.00,VWS V14.01,2013-02-05 19:28:00,
2013-02-05 14:33:00,67.7,47.3,30.02,SW,222,0.0,5.0,48,0.00,,,0.00,VWS V14.01,2013-02-05 19:33:00,
2013-02-05 14:38:00,68.3,47.9,30.02,SW,216,0.0,4.0,48,0.00,,,0.00,VWS V14.01,2013-02-05 19:38:00,
2013-02-05 14:43:00,68.7,46.5,30.02,SW,215,0.0,4.0,45,0.00,,,0.00,VWS V14.01,2013-02-05 19:43:00,
2013-02-05 14:48:00,68.5,46.9,30.02,SW,214,0.0,5.0,46,0.00,,,0.00,VWS V14.01,2013-02-05 19:48:00,
2013-02-05 14:54:00,68.9,46.7,30.02,SW,226,0.0,2.0,45,0.00,,,0.00,VWS V14.01,2013-02-05 19:54:00,
2013-02-05 15:00:00,69.1,46.9,30.02,SW,233,0.0,1.0,45,0.00,,,0.00,VWS V14.01,2013-02-05 20:00:00,
2013-02-05 15:06:00,69.4,46.6,30.01,SSW,208,0.0,5.0,44,0.00,,,0.00,VWS V14.01,2013-02-05 20:06:00,
2013-02-05 15:12:00,69.2,47.6,30.02,SW,233,0.0,5.0,46,0.00,,,0.00,VWS V14.01,2013-02-05 20:12:00,
2013-02-05 15:18:00,69.1,47.5,30.02,SW,233,0.0,3.0,46,0.00,,,0.00,VWS V14.01,2013-02-05 20:18:00,
2013-02-05 15:23:00,69.2,47.6,30.01,SW,224,0.0,4.0,46,0.00,,,0.00,VWS V14.01,2013-02-05 20:23:00,
2013-02-05 15:28:00,69.1,47.5,30.01,SW,216,3.0,6.0,46,0.00,,,0.00,VWS V14.01,2013-02-05 20:28:00,
2013-02-05 15:33:00,68.7,47.7,30.01,SW,214,1.0,5.0,47,0.00,,,0.00,VWS V14.01,2013-02-05 20:33:00,
2013-02-05 15:38:00,68.6,47.6,30.01,SSW,212,0.0,4.0,47,0.00,,,0.00,VWS V14.01,2013-02-05 20:38:00,
2013-02-05 15:43:00,68.7,48.2,30.00,SSW,211,1.0,3.0,48,0.00,,,0.00,VWS V14.01,2013-02-05 20:43:00,
2013-02-05 15:48:00,68.8,47.8,30.01,SSW,212,0.0,2.0,47,0.00,,,0.00,VWS V14.01,2013-02-05 20:48:00,
2013-02-05 15:53:00,69.2,48.1,30.01,SSW,211,0.0,3.0,47,0.00,,,0.00,VWS V14.01,2013-02-05 20:53:00,
2013-02-05 15:58:00,69.9,48.2,30.00,SSW,210,0.0,4.0,46,0.00,,,0.00,VWS V14.01,2013-02-05 20:58:00,
2013-02-05 16:03:00,69.9,48.2,30.01,SSW,210,0.0,3.0,46,0.00,,,0.00,VWS V14.01,2013-02-05 21:03:00,
2013-02-05 16:08:00,69.9,48.2,30.01,SSW,210,0.0,3.0,46,0.00,,,0.00,VWS V14.01,2013-02-05 21:08:00,
2013-02-05 16:15:00,69.9,48.2,30.01,SSW,209,0.0,5.0,46,0.00,,,0.00,VWS V14.01,2013-02-05 21:15:00,
2013-02-05 16:21:00,69.9,48.8,30.01,SSW,210,0.0,3.0,47,0.00,,,0.00,VWS V14.01,2013-02-05 21:21:00,
2013-02-05 16:27:00,70.3,48.6,30.01,SSW,210,0.0,4.0,46,0.00,,,0.00,VWS V14.01,2013-02-05 21:27:00,
2013-02-05 16:33:00,69.8,48.1,30.01,SSW,210,1.0,3.0,46,0.00,,,0.00,VWS V14.01,2013-02-05 21:33:00,
2013-02-05 16:38:00,69.2,48.1,30.01,SSW,210,3.0,4.0,47,0.00,,,0.00,VWS V14.01,2013-02-05 21:38:00,
2013-02-05 16:43:00,68.6,48.7,30.01,SSW,208,0.0,5.0,49,0.00,,,0.00,VWS V14.01,2013-02-05 21:43:00,
2013-02-05 16:48:00,68.4,48.0,30.01,SSW,208,1.0,2.0,48,0.00,,,0.00,VWS V14.01,2013-02-05 21:48:00,
2013-02-05 16:54:00,68.4,48.5,30.01,SSW,208,0.0,3.0,49,0.00,,,0.00,VWS V14.01,2013-02-05 21:54:00,
2013-02-05 17:00:00,68.5,48.6,30.01,SSW,208,0.0,2.0,49,0.00,,,0.00,VWS V14.01,2013-02-05 22:00:00,
2013-02-05 17:06:00,68.5,48.6,30.01,SSW,208,0.0,1.0,49,0.00,,,0.00,VWS V14.01,2013-02-05 22:06:00,
2013-02-05 17:12:00,68.5,48.6,30.01,SSW,208,0.0,3.0,49,0.00,,,0.00,VWS V14.01,2013-02-05 22:12:00,
2013-02-05 17:18:00,68.4,49.1,30.01,SSW,209,0.0,4.0,50,0.00,,,0.00,VWS V14.01,2013-02-05 22:18:00,
2013-02-05 17:23:00,68.4,49.1,30.01,SSW,208,0.0,1.0,50,0.00,,,0.00,VWS V14.01,2013-02-05 22:23:00,
2013-02-05 17:28:00,68.5,48.6,30.00,SSW,209,1.0,1.0,49,0.00,,,0.00,VWS V14.01,2013-02-05 22:28:00,
2013-02-05 17:34:00,68.4,49.1,30.00,SSW,208,0.0,0.0,50,0.00,,,0.00,VWS V14.01,2013-02-05 22:34:00,
2013-02-05 17:40:00,68.3,49.0,30.00,SSW,208,0.0,1.0,50,0.00,,,0.00,VWS V14.01,2013-02-05 22:40:00,
2013-02-05 17:46:00,68.1,50.3,29.99,SSW,208,0.0,0.0,53,0.00,,,0.00,VWS V14.01,2013-02-05 22:46:00,
2013-02-05 17:52:00,67.8,51.1,29.99,SSW,208,0.0,0.0,55,0.00,,,0.00,VWS V14.01,2013-02-05 22:52:00,
2013-02-05 17:58:00,67.5,50.3,29.99,SSW,208,0.0,0.0,54,0.00,,,0.00,VWS V14.01,2013-02-05 22:58:00,
2013-02-05 18:03:00,67.2,51.0,30.00,SSW,208,0.0,0.0,56,0.00,,,0.00,VWS V14.01,2013-02-05 23:03:00,
2013-02-05 18:08:00,67.1,50.9,30.00,SSW,208,0.0,0.0,56,0.00,,,0.00,VWS V14.01,2013-02-05 23:08:00,
2013-02-05 18:13:00,66.9,50.2,30.00,SSW,208,0.0,0.0,55,0.00,,,0.00,VWS V14.01,2013-02-05 23:13:00,
2013-02-05 18:18:00,66.8,51.1,30.00,SSW,208,0.0,0.0,57,0.00,,,0.00,VWS V14.01,2013-02-05 23:18:00,
2013-02-05 18:23:00,66.6,50.0,30.00,SSW,209,0.0,1.0,55,0.00,,,0.00,VWS V14.01,2013-02-05 23:23:00,
2013-02-05 18:28:00,66.5,49.8,30.01,SSW,208,0.0,1.0,55,0.00,,,0.00,VWS V14.01,2013-02-05 23:28:00,
2013-02-05 18:33:00,66.3,49.7,30.00,SSW,208,0.0,1.0,55,0.00,,,0.00,VWS V14.01,2013-02-05 23:33:00,
2013-02-05 18:38:00,66.2,49.6,30.01,SSW,208,0.0,1.0,55,0.00,,,0.00,VWS V14.01,2013-02-05 23:38:00,
2013-02-05 18:43:00,66.1,50.0,30.01,SSW,209,0.0,1.0,56,0.00,,,0.00,VWS V14.01,2013-02-05 23:43:00,
2013-02-05 18:48:00,65.9,49.8,30.01,SSW,208,0.0,1.0,56,0.00,,,0.00,VWS V14.01,2013-02-05 23:48:00,
2013-02-05 18:55:00,65.8,50.2,30.01,SSW,209,0.0,0.0,57,0.00,,,0.00,VWS V14.01,2013-02-05 23:55:00,
2013-02-05 19:01:00,65.6,50.0,30.01,SSW,209,0.0,1.0,57,0.00,,,0.00,VWS V14.01,2013-02-06 00:01:00,
2013-02-05 19:07:00,65.4,50.2,30.01,SSW,208,0.0,0.0,58,0.00,,,0.00,VWS V14.01,2013-02-06 00:07:00,
2013-02-05 19:13:00,65.2,50.1,30.01,SSW,209,0.0,0.0,58,0.00,,,0.00,VWS V14.01,2013-02-06 00:13:00,
2013-02-05 19:18:00,65.0,50.8,30.02,SSW,208,0.0,0.0,60,0.00,,,0.00,VWS V14.01,2013-02-06 00:18:00,
2013-02-05 19:23:00,64.9,50.7,30.02,SSW,208,0.0,0.0,60,0.00,,,0.00,VWS V14.01,2013-02-06 00:23:00,
2013-02-05 19:28:00,64.8,50.6,30.02,SSW,209,0.0,0.0,60,0.00,,,0.00,VWS V14.01,2013-02-06 00:28:00,
2013-02-05 19:34:00,64.6,50.9,30.02,SSW,208,0.0,0.0,61,0.00,,,0.00,VWS V14.01,2013-02-06 00:34:00,
2013-02-05 19:40:00,64.5,50.8,30.02,SSW,208,0.0,0.0,61,0.00,,,0.00,VWS V14.01,2013-02-06 00:40:00,
2013-02-05 19:46:00,64.2,50.5,30.02,SSW,209,0.0,0.0,61,0.00,,,0.00,VWS V14.01,2013-02-06 00:46:00,
2013-02-05 19:52:00,63.8,50.5,30.03,SSW,209,0.0,0.0,62,0.00,,,0.00,VWS V14.01,2013-02-06 00:52:00,
2013-02-05 19:58:00,63.6,50.8,30.02,SSW,208,0.0,0.0,63,0.00,,,0.00,VWS V14.01,2013-02-06 00:58:00,
2013-02-05 20:03:00,63.2,50.8,30.02,SSW,208,0.0,0.0,64,0.00,,,0.00,VWS V14.01,2013-02-06 01:03:00,
2013-02-05 20:08:00,62.9,51.0,30.02,SSW,208,0.0,0.0,65,0.00,,,0.00,VWS V14.01,2013-02-06 01:08:00,
2013-02-05 20:13:00,62.5,51.0,30.02,SSW,209,0.0,0.0,66,0.00,,,0.00,VWS V14.01,2013-02-06 01:13:00,
2013-02-05 20:18:00,62.3,50.8,30.03,SSW,208,0.0,0.0,66,0.00,,,0.00,VWS V14.01,2013-02-06 01:18:00,
2013-02-05 20:23:00,62.1,50.6,30.03,SSW,208,0.0,0.0,66,0.00,,,0.00,VWS V14.01,2013-02-06 01:23:00,
2013-02-05 20:28:00,62.0,50.9,30.03,SSW,208,0.0,0.0,67,0.00,,,0.00,VWS V14.01,2013-02-06 01:28:00,
2013-02-05 20:34:00,62.0,50.9,30.03,SSW,208,0.0,0.0,67,0.00,,,0.00,VWS V14.01,2013-02-06 01:34:00,
2013-02-05 20:40:00,62.0,50.5,30.03,SSW,208,0.0,0.0,66,0.00,,,0.00,VWS V14.01,2013-02-06 01:40:00,
2013-02-05 20:46:00,62.0,50.9,30.03,SSW,209,0.0,0.0,67,0.00,,,0.00,VWS V14.01,2013-02-06 01:46:00,
2013-02-05 20:52:00,62.0,50.5,30.04,SSW,209,0.0,0.0,66,0.00,,,0.00,VWS V14.01,2013-02-06 01:52:00,
2013-02-05 20:58:00,62.0,50.5,30.04,SSW,208,0.0,0.0,66,0.00,,,0.00,VWS V14.01,2013-02-06 01:58:00,
2013-02-05 21:03:00,62.1,50.6,30.04,SSW,208,0.0,0.0,66,0.00,,,0.00,VWS V14.01,2013-02-06 02:03:00,
2013-02-05 21:08:00,62.1,50.6,30.05,SSW,208,0.0,0.0,66,0.00,,,0.00,VWS V14.01,2013-02-06 02:08:00,
2013-02-05 21:13:00,62.1,50.2,30.05,SSW,209,0.0,0.0,65,0.00,,,0.00,VWS V14.01,2013-02-06 02:13:00,
2013-02-05 21:18:00,62.2,50.3,30.05,SSW,208,0.0,0.0,65,0.00,,,0.00,VWS V14.01,2013-02-06 02:18:00,
2013-02-05 21:23:00,62.3,50.8,30.05,SSW,208,0.0,0.0,66,0.00,,,0.00,VWS V14.01,2013-02-06 02:23:00,
2013-02-05 21:28:00,62.3,50.8,30.05,SSW,208,0.0,0.0,66,0.00,,,0.00,VWS V14.01,2013-02-06 02:28:00,
2013-02-05 21:33:00,62.3,51.2,30.05,SSW,208,0.0,0.0,67,0.00,,,0.00,VWS V14.01,2013-02-06 02:33:00,
2013-02-05 21:41:00,62.1,51.0,30.05,SSW,208,0.0,0.0,67,0.00,,,0.00,VWS V14.01,2013-02-06 02:41:00,
2013-02-05 21:47:00,61.9,51.2,30.05,SSW,208,0.0,0.0,68,0.00,,,0.00,VWS V14.01,2013-02-06 02:47:00,
2013-02-05 21:53:00,61.8,51.5,30.06,SSW,208,0.0,0.0,69,0.00,,,0.00,VWS V14.01,2013-02-06 02:53:00,
2013-02-05 21:58:00,61.6,51.7,30.06,SSW,208,0.0,0.0,70,0.00,,,0.00,VWS V14.01,2013-02-06 02:58:00,
2013-02-05 22:03:00,61.4,51.9,30.06,SSW,208,0.0,0.0,71,0.00,,,0.00,VWS V14.01,2013-02-06 03:03:00,
2013-02-05 22:11:00,61.1,52.4,30.06,SSW,208,0.0,0.0,73,0.00,,,0.00,VWS V14.01,2013-02-06 03:11:00,
2013-02-05 22:17:00,60.8,52.5,30.05,SSW,208,0.0,0.0,74,0.00,,,0.00,VWS V14.01,2013-02-06 03:17:00,
2013-02-05 22:23:00,60.5,52.2,30.05,SSW,209,0.0,0.0,74,0.00,,,0.00,VWS V14.01,2013-02-06 03:23:00,
2013-02-05 22:28:00,60.4,52.5,30.05,SSW,208,0.0,0.0,75,0.00,,,0.00,VWS V14.01,2013-02-06 03:28:00,
2013-02-05 22:33:00,60.3,52.0,30.05,SSW,208,0.0,0.0,74,0.00,,,0.00,VWS V14.01,2013-02-06 03:33:00,
2013-02-05 22:38:00,60.2,51.5,30.05,SSW,208,0.0,0.0,73,0.00,,,0.00,VWS V14.01,2013-02-06 03:38:00,
2013-02-05 22:43:00,60.2,51.5,30.05,SSW,209,0.0,0.0,73,0.00,,,0.00,VWS V14.01,2013-02-06 03:43:00,
2013-02-05 22:48:00,60.1,51.1,30.05,SSW,208,0.0,0.0,72,0.00,,,0.00,VWS V14.01,2013-02-06 03:48:00,
2013-02-05 22:53:00,60.0,51.0,30.05,SSW,209,0.0,0.0,72,0.00,,,0.00,VWS V14.01,2013-02-06 03:53:00,
2013-02-05 22:58:00,59.9,50.9,30.05,SSW,209,0.0,0.0,72,0.00,,,0.00,VWS V14.01,2013-02-06 03:58:00,
2013-02-05 23:03:00,59.8,51.1,30.05,SSW,209,0.0,0.0,73,0.00,,,0.00,VWS V14.01,2013-02-06 04:03:00,
2013-02-05 23:08:00,59.7,51.4,30.05,SSW,208,0.0,0.0,74,0.00,,,0.00,VWS V14.01,2013-02-06 04:08:00,
2013-02-05 23:13:00,59.6,51.3,30.05,SSW,208,0.0,0.0,74,0.00,,,0.00,VWS V14.01,2013-02-06 04:13:00,
2013-02-05 23:18:00,59.6,51.7,30.05,SSW,208,0.0,0.0,75,0.00,,,0.00,VWS V14.01,2013-02-06 04:18:00,
2013-02-05 23:23:00,59.5,51.6,30.05,SSW,208,0.0,0.0,75,0.00,,,0.00,VWS V14.01,2013-02-06 04:23:00,
2013-02-05 23:28:00,59.5,51.9,30.05,SSW,208,0.0,0.0,76,0.00,,,0.00,VWS V14.01,2013-02-06 04:28:00,
2013-02-05 23:33:00,59.5,51.6,30.06,SSW,208,0.0,1.0,75,0.00,,,0.00,VWS V14.01,2013-02-06 04:33:00,
2013-02-05 23:38:00,59.5,50.8,30.06,SSW,209,0.0,3.0,73,0.00,,,0.00,VWS V14.01,2013-02-06 04:38:00,
2013-02-05 23:43:00,59.7,50.7,30.05,SSW,208,0.0,0.0,72,0.00,,,0.00,VWS V14.01,2013-02-06 04:43:00,
2013-02-05 23:48:00,59.9,50.9,30.06,SSW,208,0.0,0.0,72,0.00,,,0.00,VWS V14.01,2013-02-06 04:48:00,
2013-02-05 23:53:00,60.0,50.6,30.06,SSW,209,0.0,1.0,71,0.00,,,0.00,VWS V14.01,2013-02-06 04:53:00,
2013-02-05 23:58:00,60.2,50.4,30.06,SSW,209,0.0,1.0,70,0.00,,,0.00,VWS V14.01,2013-02-06 04:58:00,